Vava — ZCIC5 — position and weather

sailwx.info

Track history (hours):
 
Tides and Currents Weather Stations Pressure Air Temp Water Temp Dewpoint Dewpoint Depression Visibility Wind Speed Wind Dir Waves Ship Positions

Vava

Last reported at 2018-Jul-17 06:10 UTC. Time now 2018-Jul-17 16:48 UTC.
Position N 37°26' E 023°33'.

Length 50 m; draft 2.7 m.

Type: Pleasure craft. MMSI: 319718000.

Date/timePositionNaut miles runAvg speedWind from/ knotsBaromVisibWave heightAir tempDewpointWater temp
2018-Jul-17 06:10N 37°26' E 023°33'211.5
2018-Jul-17 06:01N 37°28' E 023°32'  
2018-Jul-13 11:10N 37°40' E 023°38'212.0
2018-Jul-13 11:00N 37°42' E 023°38'612.2
2018-Jul-13 10:30N 37°48' E 023°39'5 9.9
2018-Jul-13 10:00N 37°50' E 023°45'0 0.1
2018-Jul-13 09:29N 37°50' E 023°45'4 8.7
2018-Jul-13 09:00N 37°54' E 023°42'2 3.8
2018-Jul-13 08:30N 37°56' E 023°41'0 0.0
2018-Jul-13 07:58N 37°56' E 023°41'0 0.0
2018-Jul-13 07:28N 37°56' E 023°41'0 0.0
2018-Jul-13 06:58N 37°56' E 023°41'0 0.0
2018-Jul-13 06:28N 37°56' E 023°41'0 0.0
2018-Jul-13 05:58N 37°56' E 023°41'0 0.0
2018-Jul-13 05:28N 37°56' E 023°41'0 0.0
2018-Jul-13 04:58N 37°56' E 023°41'0 0.0
2018-Jul-13 04:28N 37°56' E 023°41'0 0.0
2018-Jul-13 03:58N 37°56' E 023°41'0 0.0
2018-Jul-13 03:25N 37°56' E 023°41'0 0.0
2018-Jul-13 02:58N 37°56' E 023°41'0 0.0
2018-Jul-13 02:28N 37°56' E 023°41'0 0.0
2018-Jul-13 01:58N 37°56' E 023°41'0 0.0
2018-Jul-13 01:28N 37°56' E 023°41'0 0.0
2018-Jul-13 00:58N 37°56' E 023°41'0 0.0
2018-Jul-13 00:28N 37°56' E 023°41'0 0.0
2018-Jul-12 23:58N 37°56' E 023°41'0 0.0
2018-Jul-12 23:28N 37°56' E 023°41'0 0.0
2018-Jul-12 22:58N 37°56' E 023°41'0 0.0
2018-Jul-12 22:28N 37°56' E 023°41'0 0.0
2018-Jul-12 21:58N 37°56' E 023°41'0 0.0
2018-Jul-12 21:28N 37°56' E 023°41'0 0.0
2018-Jul-12 20:58N 37°56' E 023°41'0 0.0
2018-Jul-12 20:28N 37°56' E 023°41'0 0.0
2018-Jul-12 19:58N 37°56' E 023°41'0 0.0
2018-Jul-12 19:28N 37°56' E 023°41'0 0.0
2018-Jul-12 18:58N 37°56' E 023°41'0 0.0
2018-Jul-12 18:28N 37°56' E 023°41'0 0.0
2018-Jul-12 17:58N 37°56' E 023°41'0 0.0
2018-Jul-12 17:28N 37°56' E 023°41'0 0.0
2018-Jul-12 16:58N 37°56' E 023°41'0 0.0
2018-Jul-12 16:28N 37°56' E 023°41'0 0.0
2018-Jul-12 15:58N 37°56' E 023°41'0 0.0
2018-Jul-12 15:28N 37°56' E 023°41'0 0.0
2018-Jul-12 14:58N 37°56' E 023°41'0 0.0
2018-Jul-12 14:28N 37°56' E 023°41'0 0.0
2018-Jul-12 13:58N 37°56' E 023°41'0 0.0
2018-Jul-12 13:28N 37°56' E 023°41'0 0.0
2018-Jul-12 12:58N 37°56' E 023°41'0 0.0
2018-Jul-12 12:28N 37°56' E 023°41'0 0.0
2018-Jul-12 11:58N 37°56' E 023°41'0 0.0
2018-Jul-12 11:28N 37°56' E 023°41'0 0.0
2018-Jul-12 10:58N 37°56' E 023°41'0 0.0
2018-Jul-12 10:28N 37°56' E 023°41'0 0.8
2018-Jul-12 10:00N 37°56' E 023°41'3 6.7
2018-Jul-12 09:30N 37°52' E 023°40'611.8
2018-Jul-12 09:00N 37°47' E 023°42'612.2
2018-Jul-12 08:30N 37°41' E 023°46'  
Track history (hours):
 
Tides and Currents Weather Stations Pressure Air Temp Water Temp Dewpoint Dewpoint Depression Visibility Wind Speed Wind Dir Waves Ship Positions

Vava

Last reported at 2018-Jul-17 06:10 UTC. Time now 2018-Jul-17 16:48 UTC.
Position N 37°26' E 023°33'.

Length 50 m; draft 2.7 m.

Type: Pleasure craft. MMSI: 319718000.

Date/timePositionNaut miles runAvg speedWind from/ knotsBaromVisibWave heightAir tempDewpointWater temp
2018-Jul-17 06:10N 37°26' E 023°33'211.5
2018-Jul-17 06:01N 37°28' E 023°32'  
2018-Jul-13 11:10N 37°40' E 023°38'212.0
2018-Jul-13 11:00N 37°42' E 023°38'612.2
2018-Jul-13 10:30N 37°48' E 023°39'5 9.9
2018-Jul-13 10:00N 37°50' E 023°45'0 0.1
2018-Jul-13 09:29N 37°50' E 023°45'4 8.7
2018-Jul-13 09:00N 37°54' E 023°42'2 3.8
2018-Jul-13 08:30N 37°56' E 023°41'0 0.0
2018-Jul-13 07:58N 37°56' E 023°41'0 0.0
2018-Jul-13 07:28N 37°56' E 023°41'0 0.0
2018-Jul-13 06:58N 37°56' E 023°41'0 0.0
2018-Jul-13 06:28N 37°56' E 023°41'0 0.0
2018-Jul-13 05:58N 37°56' E 023°41'0 0.0
2018-Jul-13 05:28N 37°56' E 023°41'0 0.0
2018-Jul-13 04:58N 37°56' E 023°41'0 0.0
2018-Jul-13 04:28N 37°56' E 023°41'0 0.0
2018-Jul-13 03:58N 37°56' E 023°41'0 0.0
2018-Jul-13 03:25N 37°56' E 023°41'0 0.0
2018-Jul-13 02:58N 37°56' E 023°41'0 0.0
2018-Jul-13 02:28N 37°56' E 023°41'0 0.0
2018-Jul-13 01:58N 37°56' E 023°41'0 0.0
2018-Jul-13 01:28N 37°56' E 023°41'0 0.0
2018-Jul-13 00:58N 37°56' E 023°41'0 0.0
2018-Jul-13 00:28N 37°56' E 023°41'0 0.0
2018-Jul-12 23:58N 37°56' E 023°41'0 0.0
2018-Jul-12 23:28N 37°56' E 023°41'0 0.0
2018-Jul-12 22:58N 37°56' E 023°41'0 0.0
2018-Jul-12 22:28N 37°56' E 023°41'0 0.0
2018-Jul-12 21:58N 37°56' E 023°41'0 0.0
2018-Jul-12 21:28N 37°56' E 023°41'0 0.0
2018-Jul-12 20:58N 37°56' E 023°41'0 0.0
2018-Jul-12 20:28N 37°56' E 023°41'0 0.0
2018-Jul-12 19:58N 37°56' E 023°41'0 0.0
2018-Jul-12 19:28N 37°56' E 023°41'0 0.0
2018-Jul-12 18:58N 37°56' E 023°41'0 0.0
2018-Jul-12 18:28N 37°56' E 023°41'0 0.0
2018-Jul-12 17:58N 37°56' E 023°41'0 0.0
2018-Jul-12 17:28N 37°56' E 023°41'0 0.0
2018-Jul-12 16:58N 37°56' E 023°41'0 0.0
2018-Jul-12 16:28N 37°56' E 023°41'0 0.0
2018-Jul-12 15:58N 37°56' E 023°41'0 0.0
2018-Jul-12 15:28N 37°56' E 023°41'0 0.0
2018-Jul-12 14:58N 37°56' E 023°41'0 0.0
2018-Jul-12 14:28N 37°56' E 023°41'0 0.0
2018-Jul-12 13:58N 37°56' E 023°41'0 0.0
2018-Jul-12 13:28N 37°56' E 023°41'0 0.0
2018-Jul-12 12:58N 37°56' E 023°41'0 0.0
2018-Jul-12 12:28N 37°56' E 023°41'0 0.0
2018-Jul-12 11:58N 37°56' E 023°41'0 0.0
2018-Jul-12 11:28N 37°56' E 023°41'0 0.0
2018-Jul-12 10:58N 37°56' E 023°41'0 0.0
2018-Jul-12 10:28N 37°56' E 023°41'0 0.8
2018-Jul-12 10:00N 37°56' E 023°41'3 6.7
2018-Jul-12 09:30N 37°52' E 023°40'611.8
2018-Jul-12 09:00N 37°47' E 023°42'612.2
2018-Jul-12 08:30N 37°41' E 023°46'  

Dump ship's entire track history